Regional Weather Roundup
Issued by NWS Sioux Falls, SD

Home | Current Version | Previous Version | Text Only | Print | Product List | Glossary On
Versions: 1 2 3 4 5 6 7 8 9 10 11 12 13 14 15 16 17 18 19 20 21 22 23 24 25 26 27 28 29 30 31 32 33 34 35 36 37 38 39 40 41 42 43 44 45 46 47 48 49 50
000
ASUS43 KFSD 011502
RWRFSD

WEATHER ROUNDUP FOR SE SOUTH DAKOTA/SW MINNESOTA/NW IOWA
NATIONAL WEATHER SERVICE SIOUX FALLS SD
1000 AM CDT SAT AUG 01 2015

NOTE: "FAIR" INDICATES FEW OR NO CLOUDS BELOW 12,000 FEET WITH NO
SIGNIFICANT WEATHER AND OR OBSTRUCTIONS TO VISIBILITY.


SDZ038>040-050-052>070-011600-
SOUTHEAST SOUTH DAKOTA

CITY           SKY/WX    TMP DP  RH WIND       PRES   REMARKS
BROOKINGS      MOSUNNY   73  64  73 S5        30.02F
CHAMBERLAIN    NOT AVBL
HURON          MOSUNNY   75  67  76 S12       29.95F
MADISON        FAIR      75  70  83 SW9       30.01F
MITCHELL       CLOUDY    76  66  71 S14G21    29.99S
SIOUX FALLS    PTSUNNY   76  67  73 SW6       30.01F
WINNER         FAIR      75  54  47 SW16      29.98S
YANKTON        CLOUDY    73  66  78 SW10      30.01S
$$

MNZ071-072-080-081-089-090-097-098-011600-
SOUTHWEST MINNESOTA

CITY           SKY/WX    TMP DP  RH WIND       PRES   REMARKS
FAIRMONT       SUNNY     75  64  69 W9        30.01S
JACKSON        SUNNY     77  68  73 W9        30.03S
LUVERNE        PTSUNNY   72  68  88 SW6       30.03F
MARSHALL       SUNNY     77  66  69 NW5       30.01S
MONTEVIDEO     SUNNY     79  64  61 S3        30.01R
PIPESTONE      MOSUNNY   75  70  83 SW7       30.03S
REDWOOD FALLS  SUNNY     74  63  68 CALM      29.99S
TRACY          SUNNY     79  70  73 W3        30.01S
WINDOM         SUNNY     77  68  73 SW8       30.02S
WORTHINGTON    MOSUNNY   75  66  73 SW12      30.03S
$$

IAZ001>003-012>014-020>022-031-032-NEZ013-014-SDZ071-011600-
NORTHWEST IOWA

CITY           SKY/WX    TMP DP  RH WIND       PRES   REMARKS
DENISON        CLOUDY    70  68  94 SW8       30.04R
ESTHERVILLE    SUNNY     77  68  73 SW8       30.02F
SIOUX CITY     PTSUNNY   75  66  73 S3        30.03S
SPENCER        MOSUNNY   77  68  73 SW8       30.04S
$$

ABBREVIATIONS USED IN REMARKS
   TC - TEMPERATURE IN CELSIUS
  WCI - WIND CHILL INDEX
   HX - HEAT INDEX
  VSB - VISIBILITY




USA.gov is the U.S. government's official web portal to all federal, state and local government web resources and services.